Location: Ladrillo (historical)
(32.8195°N, 117.2231°W)
Time: 19:08:21
(UTC+00:00)

NOAA 18 - Pass Details

Date: 26 April 2021
Orbit: 840 x 861 km, 99.0° (Epoch: 05 May)

Event Time Altitude Azimuth Distance (km) Brightness Sun altitude
Exits shadow 04:19:49 29° 68° (ENE) 1,504 6.2 -22.3°
Drops below altitude 10° 04:24:23 10° 11° (N) 2,461 7.9 -23.0°
Sets 04:27:01 0° 0° (N) 3,398 8.8 -23.5°
